Powrót do katalogu

CZ-6A DEB

AktywnySSO
NORAD 55195·DEBRIS·🇨🇳 China

Wystrzelony Nov 11, 2022 z Taiyuan Satellite Launch Center

Loading…

Następne Przeloty (najbliższe 24 godziny)

TLE

ŚwieżeSource: Space-Track

Epoka: Sep 14, 2026, 03:07 UTC

1 55195U 22151VL  26257.13007851  .00004150  00000-0  82613-3 0  9996
2 55195  98.6196 319.0798 0091204  33.1754 327.5118 14.60014164197610

Śledź CZ-6A DEB w czasie rzeczywistym z AllMySat

Download on the App Store